[[{"header":{"parameterUnit":"m.s-1","parameterCategory":2,"la1":30.2991,"la2":30.254,"lo1":-89.0895,"lo2":-89.0444,"dy":0.0017,"dx":0.0017,"nx":28,"ny":28,"refTime":"2025-07-18T03:00:00:Z","depth":"0","parameterNumber":2,"parameterNumberName":"U-component_of_CURRENTS"},"data":[0,0,0,0,0,0,0,0,0,0,0,0,0,0,0,0,0,0,0,0,0,0,0,0,0,0,0,0,0,0,0,0,0,0,0,0,0,0,0,0,0,0,0,0,0,0,0,0,0,0,0,0,0,0,0,0,0,0,0.1745,0.1745,0,0.1726,0.1726,0.1726,0.1703,0.1702,0.1702,0.1702,0.1679,0.1679,0.1679,0,0,0,0,0,0,0,0,0,0,0,0,0,0.1744,0.1744,0.1745,0.1745,0.1745,0.1727,0.1726,0.1726,0.1703,0.1702,0.1702,0.1702,0.168,0.1679,0.1679,0,0,0,0,0,0,0,0,0,0,0,0,0,0.1735,0.1744,0.1745,0.1733,0.1732,0.1727,0.1726,0.1726,0.1703,0.1702,0.1702,0.1702,0.168,0.1679,0.1678,0.168,0,0,0.1677,0.1676,0,0,0,0,0,0,0,0,0.1735,0.1735,0.1735,0.1734,0.1732,0.1718,0.1717,0.1711,0.1703,0.1712,0.1702,0.1702,0.1694,0.1692,0.1686,0.1679,0.1678,0.1676,0.1676,0.1676,0.1676,0,0,0,0,0,0,0,0.1736,0.1735,0.1736,0.1735,0.1733,0.1722,0.1721,0.1716,0.1703,0.1711,0.171,0.1711,0.1693,0.1687,0.1685,0.1678,0.1676,0.1676,0.1676,0.1675,0.1729,0.173,0,0,0,0,0,0,0.1744,0.1736,0.1737,0.1736,0.1735,0.1723,0.1721,0.1722,0.1703,0.17,0.1711,0.171,0.1688,0.1686,0.1685,0.1743,0.1676,0.1675,0.1675,0.1727,0.1729,0.1731,0,0,0,0,0,0,0.1744,0.1744,0.1737,0.1737,0.1735,0.1723,0.1724,0.1721,0.1719,0.1703,0.17,0.1712,0.1688,0.1685,0.1684,0.1739,0.1675,0.1674,0.1725,0.1728,0.173,0.1822,0,0,0,0,0,0,0.1744,0.1744,0.1745,0.1737,0.1736,0.1742,0.1725,0.1721,0.1721,0.1719,0.1704,0.1701,0.1687,0.1685,0.1683,0.1737,0.1674,0.1722,0.1726,0.1729,0.1817,0.1828,0.1837,0,0,0,0,0,0.1744,0.1753,0.1745,0.1745,0.1738,0.1743,0.1741,0.173,0.1722,0.1725,0.1712,0.1702,0.1706,0.1685,0.1683,0.1738,0.1721,0.1725,0.1729,0.1812,0.1826,0.1837,0,0,0,0,0,0,0.1766,0.1752,0.1742,0.175,0.1748,0.174,0.1746,0.1735,0.1727,0.1727,0.1707,0.1703,0.1737,0.1714,0.1691,0.1765,0.172,0.1723,0.1784,0.1796,0.1806,0.1832,0.1673,0,0,0,0,0,0.1768,0.1764,0.1757,0.1765,0.1766,0.1755,0.1755,0.1748,0.1742,0.1738,0.1727,0.1727,0.1752,0.1752,0.1761,0.178,0.1803,0.182,0.183,0.1839,0.186,0.1979,0.2003,0.1744,0.1744,0.1744,0,0,0.1786,0.1772,0.1775,0.1767,0.1766,0.1781,0.1755,0.1763,0.1777,0.1738,0.1753,0.1762,0.1767,0.1804,0.1817,0.1789,0.1912,0.1844,0.1851,0.1868,0.1986,0.2012,0.2034,0.1747,0.1747,0.1746,0,0,0.1815,0.1803,0.181,0.181,0.1805,0.1802,0.1807,0.1801,0.18,0.1805,0.1811,0.1852,0.1839,0.1884,0.19,0.1969,0.197,0.1967,0.2031,0.2147,0.217,0.2191,0.2203,0.2224,0.1963,0.1964,0.1964,0,0.1837,0.1848,0.1816,0.1826,0.1847,0.1816,0.1852,0.1841,0.1834,0.1863,0.1818,0.1903,0.1892,0.2003,0.2015,0.1999,0.2024,0.1984,0.2164,0.2185,0.2205,0.2213,0.2235,0.1968,0.1968,0.1967,0.1967,0,0.1876,0.1887,0.1899,0.1901,0.191,0.194,0.193,0.1941,0.1932,0.1936,0.2022,0.2023,0.2089,0.2092,0.2059,0.221,0.2165,0.2173,0.2138,0.2237,0.2237,0.2259,0.1975,0.1974,0.1972,0.1971,0,0,0.1954,0.1931,0.1943,0.1971,0.1965,0.1994,0.2014,0.2061,0.2116,0.2103,0.2206,0.2234,0.2254,0.2275,0.228,0.2348,0.2471,0.2307,0.2311,0.2325,0.2663,0.2471,0.2475,0.2521,0.2526,0.2531,0.2588,0,0.2015,0.2057,0.2025,0.2098,0.2143,0.2126,0.2158,0.2186,0.2201,0.2277,0.2314,0.2394,0.2319,0.2374,0.244,0.2468,0.2541,0.245,0.2559,0.256,0.2387,0.25,0.2396,0.2427,0.2609,0.2613,0.2615,0,0.2101,0.2116,0.2183,0.2234,0.2254,0.2273,0.2372,0.2395,0.2463,0.2481,0.2566,0.2582,0.2676,0.2615,0.2724,0.2667,0.2683,0.2688,0.2692,0.2505,0.2412,0.2368,0.246,0.2413,0.2649,0.2646,0.2644,0,0.223,0.226,0.2323,0.2338,0.2359,0.2394,0.2418,0.2469,0.2511,0.2631,0.2684,0.2789,0.2844,0.2907,0.2837,0.2822,0.2932,0.2929,0.2779,0.2761,0.2689,0.2655,0.2761,0.3077,0.3076,0.3076,0.3076,0,0.2349,0.241,0.2381,0.2419,0.2501,0.2495,0.2589,0.2622,0.2694,0.276,0.2807,0.2886,0.2927,0.2954,0.2923,0.2863,0.3009,0.2813,0.2795,0.2704,0.2673,0.2636,0.2608,0.3078,0.3078,0.3077,0.3077,0,0.2492,0.2468,0.2537,0.2551,0.2553,0.2618,0.2642,0.2709,0.2764,0.2863,0.2907,0.2981,0.2991,0.2965,0.3033,0.2942,0.2829,0.2891,0.2702,0.266,0.2444,0.2422,0.2311,0.2259,0.2765,0.2761,0.2757,0,0.2563,0.261,0.2625,0.2638,0.263,0.2689,0.2712,0.2745,0.2789,0.2897,0.2948,0.3002,0.2991,0.2946,0.2835,0.2747,0.2704,0.2596,0.2568,0.2431,0.2401,0.225,0.2208,0.2497,0.2492,0.2488,0.2484,0,0.2706,0.27,0.2741,0.274,0.2751,0.2765,0.279,0.2818,0.2856,0.2908,0.2952,0.2961,0.2896,0.2734,0.2578,0.2527,0.2437,0.2501,0.249,0.23,0.2026,0.1966,0.2383,0.2447,0.245,0.2453,0.2455,0.2457,0.2804,0.2837,0.2846,0.2837,0.2843,0.28,0.2768,0.2784,0.2799,0.2775,0.2872,0.278,0.2658,0.242,0.234,0.2136,0.2151,0.2079,0.209,0.1967,0.1842,0.2088,0.2041,0.2042,0.2043,0.2045,0.2045,0,0.2885,0.2893,0.2922,0.2873,0.2836,0.2815,0.2778,0.2698,0.2637,0.2624,0.2597,0.2412,0.2239,0.2114,0.1906,0.1777,0.1699,0.1724,0.1599,0.1608,0.1976,0.1891,0.1653,0.1653,0.1653,0.1653,0.1653,0.1654,0.2931,0.2949,0.2919,0.2835,0.2785,0.2647,0.2574,0.2469,0.2399,0.2207,0.205,0.2004,0.1931,0.1768,0.1606,0.1567,0.1465,0.1287,0.1334,0.1709,0.1747,0.1782,0.1701,0.1428,0.1428,0.0902,0.0898,0.0895]},{"header":{"parameterUnit":"m.s-1","parameterCategory":2,"la1":30.2991,"la2":30.254,"lo1":-89.0895,"lo2":-89.0444,"dy":0.0017,"dx":0.0017,"nx":28,"ny":28,"refTime":"2025-07-18T03:00:00:Z","depth":"0","parameterNumber":3,"parameterNumberName":"V-component_of_CURRENTS"},"data":[0,0,0,0,0,0,0,0,0,0,0,0,0,0,0,0,0,0,0,0,0,0,0,0,0,0,0,0,0,0,0,0,0,0,0,0,0,0,0,0,0,0,0,0,0,0,0,0,0,0,0,0,0,0,0,0,0,0,0.0463,0.0464,0,0.0501,0.0502,0.0502,0.0517,0.0517,0.0517,0.0517,0.0526,0.0526,0.0526,0,0,0,0,0,0,0,0,0,0,0,0,0,0.0408,0.0409,0.0463,0.0464,0.0464,0.0501,0.0502,0.0502,0.0517,0.0517,0.0517,0.0517,0.0525,0.0526,0.0526,0,0,0,0,0,0,0,0,0,0,0,0,0,0.0438,0.0409,0.0463,0.0476,0.0477,0.0501,0.0502,0.0503,0.0517,0.0517,0.0517,0.0517,0.0525,0.0526,0.0526,0.0533,0,0,0.0528,0.0528,0,0,0,0,0,0,0,0,0.0436,0.044,0.0474,0.0475,0.0477,0.0504,0.0486,0.0511,0.0517,0.0502,0.0517,0.0517,0.0516,0.0517,0.0525,0.0533,0.0534,0.0528,0.0528,0.0529,0.0529,0,0,0,0,0,0,0,0.0434,0.0438,0.0478,0.0474,0.0476,0.0481,0.0485,0.0491,0.0509,0.0503,0.0505,0.0509,0.0516,0.0525,0.0525,0.0534,0.0528,0.0528,0.0529,0.0529,0.0599,0.06,0,0,0,0,0,0,0.0429,0.0436,0.0477,0.048,0.0455,0.0482,0.0487,0.0496,0.051,0.0512,0.0509,0.0509,0.0524,0.0525,0.0526,0.0602,0.0529,0.0529,0.0529,0.0597,0.0599,0.0601,0,0,0,0,0,0,0.0428,0.0433,0.0476,0.0458,0.0464,0.0484,0.0493,0.0497,0.0507,0.0514,0.0516,0.0516,0.0524,0.0525,0.0542,0.06,0.0529,0.053,0.0595,0.0598,0.06,0.0711,0,0,0,0,0,0,0.0426,0.0432,0.0439,0.0458,0.0465,0.0494,0.0494,0.0497,0.051,0.0511,0.0521,0.0522,0.0524,0.0541,0.0542,0.0599,0.053,0.0593,0.0597,0.0599,0.0706,0.0717,0.0727,0,0,0,0,0,0.0424,0.0439,0.0439,0.0444,0.0473,0.0495,0.0499,0.0512,0.051,0.052,0.053,0.0521,0.0561,0.0542,0.0543,0.0602,0.0592,0.0596,0.0599,0.0701,0.0715,0.0727,0,0,0,0,0,0,0.0426,0.0442,0.0443,0.0463,0.0477,0.0497,0.0509,0.0513,0.0529,0.053,0.0533,0.0535,0.0577,0.0562,0.0542,0.0629,0.0579,0.0582,0.0656,0.0669,0.0679,0.0722,0.0531,0,0,0,0,0,0.0427,0.0438,0.0454,0.047,0.0477,0.0491,0.0502,0.0509,0.0524,0.0531,0.0541,0.0557,0.0593,0.0606,0.0621,0.0658,0.064,0.0697,0.0708,0.0717,0.0752,0.077,0.0787,0.0612,0.0612,0.0612,0,0,0.0435,0.0442,0.0451,0.047,0.0482,0.0515,0.0498,0.0516,0.0556,0.0529,0.0581,0.0589,0.0608,0.0664,0.0682,0.0659,0.0749,0.0721,0.073,0.076,0.0776,0.0793,0.0808,0.0615,0.0614,0.0614,0,0,0.0457,0.046,0.0478,0.0492,0.0508,0.0526,0.0531,0.0553,0.0574,0.0611,0.0624,0.0673,0.0689,0.0748,0.0773,0.0847,0.0802,0.0836,0.0933,0.0951,0.0966,0.0979,0.0944,0.0954,0.0845,0.0845,0.0846,0,0.0469,0.0498,0.0487,0.0512,0.0545,0.0536,0.0582,0.0602,0.063,0.0675,0.0636,0.0747,0.0749,0.0877,0.0904,0.088,0.0849,0.0886,0.0967,0.098,0.0992,0.0953,0.0962,0.0851,0.085,0.085,0.0849,0,0.0511,0.0536,0.055,0.0587,0.0615,0.0649,0.068,0.0715,0.0732,0.0767,0.0869,0.0886,0.0965,0.0972,0.096,0.107,0.1004,0.0975,0.0939,0.1016,0.0969,0.0977,0.0859,0.0857,0.0856,0.0854,0,0,0.0547,0.0577,0.0584,0.0621,0.0664,0.0697,0.0771,0.0857,0.0941,0.0957,0.1082,0.1141,0.1156,0.1187,0.1193,0.1211,0.1247,0.1129,0.1127,0.1102,0.1239,0.1142,0.1139,0.1219,0.1221,0.1224,0.116,0,0.0596,0.065,0.0668,0.0753,0.0794,0.0832,0.0917,0.0988,0.1046,0.1152,0.1202,0.13,0.1237,0.1292,0.1307,0.1267,0.1277,0.1265,0.1162,0.1159,0.1072,0.115,0.1141,0.1081,0.1167,0.1168,0.1169,0,0.0651,0.0677,0.0752,0.0856,0.0884,0.0939,0.1095,0.1169,0.1303,0.1356,0.1458,0.1484,0.1563,0.1482,0.146,0.1443,0.1364,0.1309,0.1305,0.1193,0.1079,0.1024,0.109,0.1078,0.1179,0.1179,0.1178,0,0.0684,0.0762,0.0826,0.0852,0.0949,0.1017,0.1094,0.123,0.1324,0.1491,0.1578,0.1656,0.17,0.1635,0.1504,0.1486,0.1432,0.1393,0.1239,0.1227,0.1195,0.1177,0.1254,0.1397,0.1397,0.1397,0.1397,0,0.0737,0.0789,0.0839,0.0866,0.0973,0.105,0.1198,0.1293,0.1461,0.1594,0.1679,0.1786,0.1735,0.1694,0.1562,0.1403,0.147,0.1283,0.1229,0.1226,0.1212,0.1175,0.1155,0.1395,0.1395,0.1396,0.1396,0,0.0739,0.0777,0.084,0.0935,0.0974,0.1043,0.1213,0.134,0.1492,0.1671,0.1732,0.1867,0.182,0.1719,0.1605,0.147,0.1305,0.1261,0.123,0.1175,0.1024,0.1008,0.099,0.0996,0.111,0.1108,0.1106,0,0.0736,0.0765,0.0846,0.0894,0.0927,0.1042,0.1148,0.1321,0.1457,0.1705,0.1798,0.1852,0.1885,0.168,0.1474,0.125,0.1225,0.1093,0.109,0.1045,0.099,0.0978,0.0987,0.1071,0.1068,0.1067,0.1065,0,0.0725,0.0749,0.0797,0.0885,0.0977,0.1085,0.1241,0.1343,0.1571,0.1718,0.1889,0.1938,0.1806,0.1613,0.133,0.118,0.1093,0.1047,0.1048,0.1019,0.0972,0.094,0.104,0.105,0.1051,0.1052,0.1053,0.1054,0.0716,0.0736,0.0819,0.0903,0.1012,0.1145,0.1235,0.1409,0.1593,0.1815,0.1876,0.1941,0.1741,0.138,0.1198,0.0929,0.096,0.0861,0.0855,0.0854,0.0857,0.089,0.0808,0.0808,0.0808,0.0808,0.0808,0,0.0705,0.0761,0.0852,0.0971,0.1087,0.1143,0.1328,0.1427,0.1602,0.1761,0.1872,0.1798,0.154,0.1302,0.0944,0.0786,0.077,0.0722,0.0763,0.079,0.0865,0.0863,0.0735,0.0735,0.0735,0.0735,0.0735,0.0735,0.0715,0.0788,0.084,0.1022,0.1113,0.1251,0.1336,0.1459,0.1584,0.1712,0.1744,0.1783,0.1665,0.1111,0.0812,0.0739,0.0722,0.0632,0.0652,0.0751,0.0766,0.0781,0.0779,0.0636,0.0635,0.0617,0.0616,0.0616]}],[{"header":{"parameterUnit":"m.s-1","parameterCategory":2,"la1":30.2991,"la2":30.254,"lo1":-89.0895,"lo2":-89.0444,"dy":0.0017,"dx":0.0017,"nx":28,"ny":28,"refTime":"2025-07-18T03:00:00:Z","depth":"2","parameterNumber":2,"parameterNumberName":"U-component_of_CURRENTS"},"data":[0,0,0,0,0,0,0,0,0,0,0,0,0,0,0,0,0,0,0,0,0,0,0,0,0,0,0,0,0,0,0,0,0,0,0,0,0,0,0,0,0,0,0,0,0,0,0,0,0,0,0,0,0,0,0,0,0,0,0.1527,0.1527,0,0.1503,0.1503,0.1503,0.1526,0.1526,0.1527,0.1527,0.1541,0.1541,0.154,0,0,0,0,0,0,0,0,0,0,0,0,0,0.1543,0.1544,0.1527,0.1527,0.1526,0.1503,0.1503,0.1503,0.1525,0.1526,0.1527,0.1527,0.1541,0.1541,0.154,0,0,0,0,0,0,0,0,0,0,0,0,0,0.1533,0.1544,0.1527,0.1532,0.1531,0.1502,0.1503,0.1503,0.1525,0.1526,0.1527,0.1528,0.1541,0.1541,0.154,0.1522,0,0,0.154,0.1539,0,0,0,0,0,0,0,0,0.1534,0.1533,0.1532,0.1531,0.1531,0.1515,0.1513,0.151,0.1525,0.1532,0.1527,0.1528,0.1532,0.1533,0.1531,0.1523,0.1523,0.154,0.1539,0.1539,0.1539,0,0,0,0,0,0,0,0.1534,0.1534,0.1521,0.1531,0.153,0.1517,0.1517,0.1512,0.1531,0.1531,0.1532,0.1523,0.1533,0.1531,0.1532,0.1523,0.154,0.1539,0.1539,0.1539,0.1585,0.1586,0,0,0,0,0,0,0.1531,0.1535,0.1522,0.152,0.153,0.1516,0.1516,0.1522,0.1531,0.1531,0.1522,0.1524,0.1532,0.1532,0.1532,0.1607,0.1539,0.1539,0.1539,0.1583,0.1585,0.1586,0,0,0,0,0,0,0.1532,0.1531,0.1523,0.1523,0.152,0.1515,0.1521,0.1521,0.1536,0.1522,0.1525,0.1538,0.1532,0.1533,0.1541,0.1604,0.1539,0.1539,0.1582,0.1584,0.1586,0.1694,0,0,0,0,0,0,0.1533,0.1532,0.1539,0.1523,0.152,0.1527,0.1519,0.152,0.1526,0.1529,0.1537,0.1538,0.1533,0.1542,0.1541,0.1602,0.1539,0.158,0.1583,0.1585,0.1689,0.1699,0.1709,0,0,0,0,0,0.1534,0.1538,0.154,0.1539,0.153,0.1527,0.1526,0.1526,0.1526,0.1542,0.1539,0.1538,0.1559,0.1542,0.1541,0.1604,0.1579,0.1582,0.1585,0.1684,0.1697,0.1708,0,0,0,0,0,0,0.1556,0.154,0.1542,0.1545,0.1546,0.153,0.1537,0.1534,0.1543,0.1549,0.154,0.1541,0.1583,0.1562,0.1544,0.1622,0.1575,0.1578,0.1651,0.1663,0.1673,0.1677,0.1538,0,0,0,0,0,0.1561,0.1555,0.155,0.1552,0.1559,0.1551,0.155,0.1552,0.155,0.1556,0.1556,0.1563,0.1591,0.16,0.161,0.1634,0.1635,0.1677,0.1687,0.1696,0.1698,0.1799,0.1819,0.1596,0.1596,0.1596,0,0,0.1573,0.1556,0.1559,0.1555,0.1557,0.1573,0.1556,0.1563,0.1581,0.1554,0.1583,0.1597,0.1604,0.1649,0.1667,0.1641,0.1746,0.17,0.1708,0.1705,0.1804,0.1827,0.1846,0.1599,0.1598,0.1598,0,0,0.1584,0.1583,0.159,0.1593,0.1592,0.159,0.1598,0.1598,0.1612,0.1623,0.1635,0.1681,0.1681,0.1726,0.1742,0.1806,0.18,0.1813,0.1867,0.1967,0.1987,0.2004,0.198,0.1995,0.1815,0.1816,0.1816,0,0.1614,0.1614,0.1593,0.1603,0.1624,0.1604,0.1644,0.1639,0.1641,0.1672,0.1644,0.1722,0.1726,0.1825,0.1846,0.1836,0.1845,0.1827,0.1984,0.2002,0.2018,0.199,0.2005,0.1821,0.182,0.182,0.1819,0,0.163,0.1642,0.1649,0.1662,0.1678,0.1704,0.1708,0.1725,0.173,0.174,0.1824,0.1834,0.1889,0.1909,0.1888,0.2022,0.197,0.1993,0.1961,0.2048,0.201,0.2024,0.1829,0.1827,0.1825,0.1824,0,0,0.1718,0.1674,0.1689,0.1717,0.1725,0.1753,0.178,0.1831,0.1886,0.1882,0.197,0.2014,0.203,0.2049,0.2063,0.2131,0.2232,0.2105,0.2108,0.2091,0.2371,0.2202,0.2199,0.2302,0.2306,0.2309,0.2279,0,0.1771,0.1791,0.1762,0.1829,0.187,0.1867,0.1909,0.1945,0.1967,0.2031,0.2063,0.2143,0.2081,0.214,0.2196,0.2237,0.2282,0.2231,0.2279,0.2278,0.213,0.2217,0.2077,0.203,0.2292,0.2294,0.2296,0,0.1851,0.1845,0.1897,0.1949,0.1975,0.1994,0.21,0.2138,0.2196,0.2233,0.229,0.2292,0.2367,0.2325,0.2403,0.2376,0.2375,0.2386,0.2387,0.2205,0.2138,0.1995,0.2045,0.2319,0.2317,0.2315,0.2314,0,0.1959,0.1986,0.2027,0.2039,0.2061,0.2099,0.2137,0.2202,0.225,0.2369,0.2419,0.2484,0.2523,0.2562,0.2474,0.2489,0.2527,0.2565,0.2398,0.2381,0.2255,0.222,0.2654,0.2655,0.2655,0.2655,0.2655,0,0.2032,0.2083,0.207,0.2083,0.2164,0.2191,0.2274,0.2339,0.2416,0.2489,0.2532,0.2568,0.2598,0.2566,0.2528,0.244,0.2564,0.2408,0.2392,0.2275,0.2245,0.2498,0.2481,0.2653,0.2654,0.2654,0.2654,0,0.2072,0.2084,0.2145,0.2176,0.2192,0.2254,0.2295,0.2369,0.2466,0.2562,0.2605,0.264,0.2632,0.2567,0.2593,0.2487,0.2451,0.239,0.2164,0.2123,0.2226,0.2214,0.2268,0.2262,0.2258,0.2254,0.225,0,0.2047,0.2068,0.2169,0.2224,0.2209,0.2269,0.2319,0.239,0.2445,0.2568,0.2616,0.263,0.2579,0.2467,0.2354,0.2243,0.2324,0.2017,0.205,0.2222,0.2202,0.2197,0.2192,0.1902,0.1896,0.1891,0.1887,0,0.1958,0.2029,0.2053,0.2193,0.2257,0.2308,0.2363,0.2381,0.2487,0.2536,0.258,0.2548,0.2462,0.2244,0.2053,0.1977,0.2028,0.1914,0.2224,0.2002,0.1871,0.1851,0.1861,0.1844,0.1848,0.1852,0.1854,0.1856,0.1893,0.1929,0.2033,0.2145,0.2238,0.2326,0.2317,0.2343,0.2356,0.2356,0.2401,0.228,0.2208,0.1855,0.1717,0.1614,0.1778,0.1688,0.1707,0.1731,0.1675,0.1542,0.1436,0.1438,0.144,0.1441,0.1443,0,0.1859,0.1939,0.2,0.2151,0.2206,0.2319,0.2344,0.2257,0.2193,0.2165,0.2106,0.1806,0.1603,0.1549,0.1345,0.1264,0.1307,0.1194,0.1274,0.1317,0.1354,0.1285,0.094,0.0938,0.0937,0.0935,0,0,0.1877,0.192,0.1954,0.2041,0.2178,0.2226,0.2227,0.2075,0.1964,0.1723,0.1604,0.1572,0.1551,0.1262,0.1177,0.1045,0.1188,0.0993,0.1403,0.1548,0.1584,0.1642,0.1581,0,0,0,0,0]},{"header":{"parameterUnit":"m.s-1","parameterCategory":2,"la1":30.2991,"la2":30.254,"lo1":-89.0895,"lo2":-89.0444,"dy":0.0017,"dx":0.0017,"nx":28,"ny":28,"refTime":"2025-07-18T03:00:00:Z","depth":"2","parameterNumber":3,"parameterNumberName":"V-component_of_CURRENTS"},"data":[0,0,0,0,0,0,0,0,0,0,0,0,0,0,0,0,0,0,0,0,0,0,0,0,0,0,0,0,0,0,0,0,0,0,0,0,0,0,0,0,0,0,0,0,0,0,0,0,0,0,0,0,0,0,0,0,0,0,0.0203,0.0203,0,0.0238,0.0238,0.0239,0.0289,0.029,0.029,0.0291,0.0328,0.0329,0.0329,0,0,0,0,0,0,0,0,0,0,0,0,0,0.0153,0.0154,0.0203,0.0203,0.0203,0.0238,0.0238,0.0239,0.0289,0.029,0.029,0.0291,0.0328,0.0329,0.033,0,0,0,0,0,0,0,0,0,0,0,0,0,0.0184,0.0155,0.0203,0.0229,0.0231,0.0237,0.0238,0.024,0.0289,0.029,0.029,0.0291,0.0328,0.0329,0.033,0.0321,0,0,0.0332,0.0333,0,0,0,0,0,0,0,0,0.0182,0.0187,0.0225,0.0227,0.023,0.0256,0.0234,0.0265,0.0289,0.0272,0.0291,0.0291,0.0301,0.0304,0.0315,0.0323,0.0324,0.0332,0.0333,0.0333,0.0333,0,0,0,0,0,0,0,0.018,0.0185,0.0221,0.0225,0.0228,0.0229,0.0235,0.0241,0.0286,0.0273,0.0276,0.0273,0.0303,0.0314,0.0317,0.0325,0.0332,0.0333,0.0334,0.0334,0.0386,0.0387,0,0,0,0,0,0,0.0168,0.0183,0.022,0.0222,0.0202,0.0229,0.0236,0.0251,0.0286,0.029,0.0272,0.0275,0.0313,0.0315,0.0318,0.0396,0.0333,0.0334,0.0334,0.0386,0.0387,0.0388,0,0,0,0,0,0,0.0167,0.0172,0.0219,0.0199,0.0204,0.0229,0.0245,0.0251,0.0275,0.0284,0.0289,0.0291,0.0313,0.0317,0.034,0.0395,0.0334,0.0335,0.0384,0.0386,0.0387,0.0497,0,0,0,0,0,0,0.0166,0.0172,0.0185,0.0198,0.0205,0.0237,0.0244,0.0251,0.0269,0.0273,0.0301,0.0305,0.0314,0.0339,0.0341,0.0395,0.0336,0.0383,0.0385,0.0387,0.0492,0.0502,0.051,0,0,0,0,0,0.0164,0.0174,0.0186,0.019,0.0221,0.0237,0.0242,0.0263,0.0269,0.0287,0.0305,0.0305,0.0351,0.034,0.0343,0.0398,0.0383,0.0385,0.0387,0.0488,0.05,0.051,0,0,0,0,0,0,0.0163,0.018,0.0194,0.0211,0.0229,0.0244,0.0257,0.0267,0.0295,0.0301,0.0312,0.0317,0.036,0.0349,0.0337,0.0413,0.0368,0.0371,0.0445,0.0456,0.0465,0.0463,0.0337,0,0,0,0,0,0.0166,0.0177,0.0198,0.0212,0.0223,0.0242,0.0252,0.0267,0.0285,0.0299,0.0318,0.0336,0.0367,0.0387,0.0398,0.0436,0.0402,0.0471,0.048,0.0488,0.0485,0.0498,0.0509,0.0394,0.0394,0.0394,0,0,0.0169,0.0176,0.0186,0.0211,0.0228,0.0255,0.0253,0.0271,0.0305,0.0296,0.0348,0.0363,0.0379,0.0432,0.045,0.0435,0.0495,0.049,0.0498,0.049,0.0502,0.0513,0.0523,0.0395,0.0395,0.0395,0,0,0.0174,0.0191,0.0207,0.0224,0.0245,0.0262,0.0269,0.0296,0.0327,0.0362,0.0379,0.0424,0.0449,0.0496,0.0516,0.0573,0.0536,0.0577,0.0637,0.0651,0.0661,0.0669,0.0613,0.0616,0.0591,0.0591,0.0591,0,0.0188,0.0207,0.0214,0.0234,0.0261,0.0269,0.0308,0.0331,0.0364,0.0403,0.0387,0.0471,0.0486,0.058,0.0607,0.06,0.0568,0.0604,0.0665,0.0673,0.068,0.062,0.0621,0.0597,0.0596,0.0596,0.0595,0,0.0207,0.0227,0.0236,0.0275,0.0306,0.0332,0.037,0.0404,0.0431,0.0464,0.0546,0.057,0.0625,0.0647,0.0647,0.0725,0.0669,0.0671,0.0644,0.0699,0.0631,0.063,0.0605,0.0603,0.0601,0.06,0,0,0.0239,0.0254,0.0259,0.029,0.0335,0.0364,0.0425,0.0499,0.0567,0.0587,0.0674,0.0733,0.0746,0.0768,0.0787,0.0807,0.0826,0.0763,0.0762,0.0715,0.0801,0.0739,0.0731,0.0844,0.0845,0.0846,0.0724,0,0.0268,0.0301,0.0316,0.0376,0.0409,0.045,0.0518,0.0582,0.0644,0.072,0.0754,0.0839,0.0794,0.0851,0.0855,0.0853,0.0833,0.0854,0.0746,0.0741,0.0689,0.0733,0.0733,0.0625,0.0723,0.0723,0.0723,0,0.0298,0.0315,0.0366,0.0444,0.0471,0.0508,0.0641,0.071,0.081,0.088,0.0944,0.0956,0.1007,0.0956,0.0928,0.0941,0.0864,0.0832,0.0827,0.0731,0.068,0.059,0.0619,0.0722,0.0722,0.0722,0.0722,0,0.0302,0.0366,0.0407,0.0427,0.0506,0.0555,0.0624,0.0747,0.0828,0.0986,0.107,0.1097,0.1135,0.1062,0.0945,0.0957,0.0864,0.0879,0.0727,0.0718,0.0676,0.0663,0.0823,0.0823,0.0824,0.0824,0.0824,0,0.03,0.033,0.0404,0.0406,0.0486,0.0576,0.0675,0.0788,0.093,0.1056,0.1146,0.1215,0.1167,0.1089,0.0968,0.0823,0.087,0.0731,0.0701,0.0709,0.07,0.0757,0.0751,0.0819,0.082,0.0821,0.0822,0,0.0211,0.0276,0.0324,0.0424,0.0461,0.0515,0.0646,0.0752,0.0939,0.1105,0.1165,0.1278,0.126,0.1133,0.1013,0.0869,0.0737,0.0652,0.0622,0.0593,0.0569,0.057,0.0524,0.0521,0.0518,0.0516,0.0515,0,0.0133,0.0148,0.0281,0.0356,0.0377,0.0464,0.0553,0.0719,0.0849,0.1125,0.1211,0.1263,0.1297,0.1081,0.0887,0.0671,0.0663,0.0487,0.0534,0.0572,0.0547,0.0552,0.0556,0.0497,0.0496,0.0494,0.0493,0,-0.003,0.0045,0.0081,0.0253,0.0353,0.0462,0.0603,0.068,0.094,0.1108,0.1327,0.1373,0.1256,0.1063,0.0766,0.0615,0.0541,0.0452,0.0525,0.0579,0.054,0.0518,0.0524,0.0481,0.0482,0.0483,0.0484,0.0484,-0.0143,-0.0121,0.0019,0.0181,0.0317,0.0524,0.0623,0.0789,0.0972,0.1263,0.1282,0.1378,0.1214,0.0858,0.0634,0.0428,0.0471,0.037,0.0378,0.0387,0.0412,0.0372,0.0281,0.0281,0.0281,0.0281,0.0281,0,-0.0191,-0.0109,-0.0009,0.0223,0.0392,0.052,0.0733,0.0857,0.108,0.1215,0.1361,0.1179,0.0982,0.0808,0.0502,0.0307,0.0325,0.0238,0.0312,0.0324,0.0335,0.0362,0.0215,0.0214,0.0214,0.0213,0,0,-0.0186,-0.01,-0.001,0.0272,0.0475,0.0729,0.0889,0.1044,0.1141,0.1235,0.1251,0.1229,0.1024,0.0773,0.0549,0.0387,0.0394,0.0345,0.0415,0.0541,0.0554,0.0423,0.0478,0,0,0,0,0]}],[{"header":{"parameterUnit":"m.s-1","parameterCategory":2,"la1":30.2991,"la2":30.254,"lo1":-89.0895,"lo2":-89.0444,"dy":0.0017,"dx":0.0017,"nx":28,"ny":28,"refTime":"2025-07-18T03:00:00:Z","depth":"4","parameterNumber":2,"parameterNumberName":"U-component_of_CURRENTS"},"data":[0,0,0,0,0,0,0,0,0,0,0,0,0,0,0,0,0,0,0,0,0,0,0,0,0,0,0,0,0,0,0,0,0,0,0,0,0,0,0,0,0,0,0,0,0,0,0,0,0,0,0,0,0,0,0,0,0,0,0.0578,0.0579,0,0.0631,0.0631,0.0632,0.0675,0.0675,0.0675,0.0676,0.0755,0.0756,0.0758,0,0,0,0,0,0,0,0,0,0,0,0,0,0.0538,0.0538,0.0578,0.0579,0.0579,0.0631,0.0632,0.0632,0.0675,0.0675,0.0675,0.0676,0.0754,0.0756,0.0758,0,0,0,0,0,0,0,0,0,0,0,0,0,0.057,0.0538,0.0578,0.0606,0.0608,0.063,0.0632,0.0633,0.0674,0.0675,0.0675,0.0676,0.0753,0.0756,0.0759,0.0766,0,0,0.0767,0.0768,0,0,0,0,0,0,0,0,0.0568,0.0572,0.0601,0.0604,0.0607,0.0645,0.0646,0.0678,0.0674,0.0651,0.0676,0.0676,0.0719,0.0725,0.0735,0.077,0.0773,0.0767,0.0769,0.077,0.0771,0,0,0,0,0,0,0,0.0566,0.057,0.06,0.0602,0.0605,0.0623,0.0628,0.0652,0.0683,0.0653,0.0656,0.0659,0.0722,0.0733,0.0737,0.0774,0.0767,0.077,0.0771,0.0772,0.089,0.0891,0,0,0,0,0,0,0.0555,0.0568,0.0599,0.0602,0.0587,0.0623,0.0629,0.0634,0.0683,0.069,0.0659,0.0661,0.0728,0.0734,0.074,0.0791,0.077,0.0773,0.0774,0.0888,0.089,0.0891,0,0,0,0,0,0,0.0554,0.0557,0.0597,0.0585,0.0591,0.0623,0.0628,0.0634,0.0657,0.0687,0.0695,0.0676,0.0728,0.0737,0.0782,0.0793,0.0774,0.0776,0.0886,0.0889,0.0891,0.0866,0,0,0,0,0,0,0.0553,0.0557,0.0568,0.0584,0.0591,0.061,0.0628,0.0635,0.0657,0.0661,0.0704,0.0711,0.0729,0.0778,0.0785,0.0796,0.0778,0.0884,0.0887,0.089,0.0865,0.0867,0.0869,0,0,0,0,0,0.0551,0.0556,0.0568,0.0572,0.0601,0.061,0.0616,0.0641,0.0658,0.0665,0.0706,0.0711,0.0801,0.0781,0.0789,0.0801,0.0883,0.0886,0.089,0.0864,0.0867,0.0869,0,0,0,0,0,0,0.0537,0.0561,0.0574,0.0586,0.0599,0.0617,0.0632,0.0646,0.0683,0.0699,0.0726,0.0736,0.0779,0.0801,0.0778,0.0847,0.0844,0.0849,0.0822,0.0825,0.0827,0.0871,0.0781,0,0,0,0,0,0.054,0.0561,0.0572,0.0586,0.0591,0.0614,0.0626,0.0642,0.0671,0.0689,0.0723,0.0766,0.0797,0.0819,0.0851,0.0886,0.0907,0.0904,0.0906,0.0907,0.0952,0.0977,0.0985,0.0902,0.0902,0.0902,0,0,0.0534,0.0557,0.0565,0.0587,0.0604,0.0615,0.0624,0.0644,0.0673,0.0692,0.0753,0.0772,0.0808,0.0849,0.087,0.0869,0.0935,0.0911,0.0911,0.0957,0.0981,0.0989,0.0996,0.0905,0.0904,0.0904,0,0,0.0538,0.0557,0.0575,0.0589,0.0617,0.0626,0.0632,0.0659,0.0693,0.0735,0.0763,0.0801,0.0845,0.0882,0.0901,0.094,0.0941,0.094,0.0988,0.101,0.1016,0.1023,0.1023,0.103,0.0943,0.0943,0.0943,0,0.053,0.0555,0.0578,0.06,0.061,0.063,0.0639,0.0677,0.0724,0.0762,0.0756,0.0854,0.0867,0.0936,0.0949,0.0944,0.0952,0.0963,0.101,0.1017,0.1024,0.1024,0.1032,0.0943,0.0943,0.0943,0.0943,0,0.055,0.0567,0.0576,0.0612,0.0627,0.0636,0.0676,0.0719,0.0751,0.0787,0.0866,0.0898,0.0966,0.0956,0.0963,0.1028,0.1013,0.0999,0.0996,0.1031,0.1028,0.1036,0.0941,0.0942,0.0942,0.0942,0,0,0.0515,0.0575,0.0577,0.058,0.0632,0.0627,0.0704,0.0755,0.0794,0.0866,0.0935,0.0992,0.1028,0.1059,0.1073,0.1093,0.1115,0.1074,0.1075,0.1062,0.1152,0.1036,0.1033,0.1099,0.1101,0.1103,0.1116,0,0.0511,0.0541,0.0583,0.0587,0.0585,0.0643,0.0692,0.0757,0.0816,0.0893,0.0981,0.1039,0.1063,0.1084,0.1124,0.1135,0.1144,0.1113,0.1136,0.1138,0.1018,0.1042,0.111,0.1122,0.1124,0.1126,0.1127,0,0.0489,0.0521,0.0527,0.0553,0.0557,0.0581,0.0648,0.0703,0.0841,0.0878,0.1003,0.1082,0.1201,0.1169,0.1262,0.1242,0.1213,0.1197,0.1196,0.1118,0.1038,0.1094,0.1142,0.1141,0.114,0.1139,0.1138,0,0.0393,0.0453,0.045,0.0462,0.0515,0.0553,0.0605,0.0715,0.0771,0.0907,0.0939,0.1112,0.1178,0.1236,0.1271,0.1269,0.1312,0.1295,0.1162,0.1152,0.1263,0.1256,0.132,0.132,0.132,0.132,0.132,0,0.0324,0.0312,0.0415,0.0393,0.0411,0.0495,0.0543,0.0597,0.0737,0.0798,0.0945,0.1006,0.1192,0.1268,0.1289,0.1266,0.1337,0.1194,0.1159,0.1246,0.1239,0.1266,0.1259,0.132,0.132,0.132,0.132,0,0.0178,0.0241,0.0222,0.0307,0.0344,0.036,0.0502,0.0558,0.0653,0.0751,0.0807,0.0964,0.1064,0.1194,0.1265,0.1244,0.1245,0.1187,0.127,0.1236,0.1069,0.1062,0.1092,0.1089,0.1086,0.1083,0.1081,0,0.0101,0.0083,0.0135,0.0163,0.0207,0.0292,0.0362,0.0493,0.0569,0.0705,0.074,0.0887,0.0991,0.1031,0.1127,0.1183,0.1143,0.1122,0.1127,0.1089,0.1052,0.105,0.1047,0.1076,0.1075,0.1074,0.1073,0,-0.0033,-0.002,-0.0016,0.0043,0.0109,0.0182,0.031,0.0353,0.0518,0.0595,0.0701,0.0797,0.0874,0.0996,0.1023,0.1045,0.1156,0.1089,0.1096,0.1101,0.1069,0.1035,0.1036,0.1062,0.1064,0.1065,0.1065,0,-0.0121,-0.0135,-0.0102,-0.0052,0.002,0.0103,0.0166,0.0315,0.0403,0.0593,0.0616,0.0747,0.0882,0.0912,0.0934,0.0973,0.0971,0.0935,0.095,0.0963,0.0913,0.0853,0.0767,0,0,0,0,0,-0.0166,-0.016,-0.0154,-0.0095,-0.0033,0.0028,0.0157,0.0245,0.0403,0.0469,0.0568,0.0657,0.0746,0.0786,0.0808,0.0834,0.0941,0.0844,0.0898,0.1001,0.1014,0.0966,0,0,0,0,0,0,-0.0185,-0.0185,-0.0179,-0.0124,-0.0077,0.0008,0.0091,0.0189,0.0256,0.0411,0.0479,0.0578,0.0683,0.075,0.0787,0.0799,0.0808,0.0924,0.092,0.0994,0.1005,0.1015,0.0971,0,0,0,0,0]},{"header":{"parameterUnit":"m.s-1","parameterCategory":2,"la1":30.2991,"la2":30.254,"lo1":-89.0895,"lo2":-89.0444,"dy":0.0017,"dx":0.0017,"nx":28,"ny":28,"refTime":"2025-07-18T03:00:00:Z","depth":"4","parameterNumber":3,"parameterNumberName":"V-component_of_CURRENTS"},"data":[0,0,0,0,0,0,0,0,0,0,0,0,0,0,0,0,0,0,0,0,0,0,0,0,0,0,0,0,0,0,0,0,0,0,0,0,0,0,0,0,0,0,0,0,0,0,0,0,0,0,0,0,0,0,0,0,0,0,-0.0112,-0.0112,0,-0.0074,-0.0074,-0.0073,-0.006,-0.006,-0.006,-0.006,-0.0022,-0.0021,-0.002,0,0,0,0,0,0,0,0,0,0,0,0,0,-0.0163,-0.0162,-0.0112,-0.0112,-0.0111,-0.0074,-0.0074,-0.0073,-0.006,-0.006,-0.006,-0.006,-0.0022,-0.0021,-0.002,0,0,0,0,0,0,0,0,0,0,0,0,0,-0.0135,-0.0162,-0.0112,-0.01,-0.0099,-0.0074,-0.0074,-0.0073,-0.006,-0.006,-0.006,-0.0061,-0.0023,-0.0021,-0.0019,-0.0006,0,0,-0.0014,-0.0014,0,0,0,0,0,0,0,0,-0.0137,-0.0133,-0.0102,-0.0101,-0.0099,-0.0072,-0.0077,-0.005,-0.006,-0.0075,-0.006,-0.0061,-0.0038,-0.0035,-0.0028,-0.0004,-0.0002,-0.0014,-0.0013,-0.0012,-0.0012,0,0,0,0,0,0,0,-0.0139,-0.0135,-0.0098,-0.0102,-0.01,-0.0093,-0.0089,-0.0072,-0.0056,-0.0074,-0.0073,-0.0068,-0.0037,-0.003,-0.0027,-0.0002,-0.0014,-0.0013,-0.0012,-0.0011,0.0029,0.0029,0,0,0,0,0,0,-0.0143,-0.0137,-0.0099,-0.0096,-0.0118,-0.0092,-0.0088,-0.0081,-0.0057,-0.0053,-0.0068,-0.0067,-0.0033,-0.0029,-0.0026,-0.002,-0.0012,-0.0011,-0.001,0.0029,0.0029,0.0029,0,0,0,0,0,0,-0.0144,-0.014,-0.01,-0.0116,-0.011,-0.0091,-0.0083,-0.008,-0.0073,-0.0052,-0.0048,-0.0064,-0.0033,-0.0028,-0.0004,-0.0018,-0.001,-0.0008,0.0029,0.0029,0.0029,-0.0001,0,0,0,0,0,0,-0.0146,-0.014,-0.0137,-0.0116,-0.0109,-0.0088,-0.0083,-0.0079,-0.0069,-0.0068,-0.0047,-0.0044,-0.0032,-0.0007,-0.0003,-0.0016,-0.0007,0.0029,0.0029,0.0029,-0.0,-0.0002,-0.0004,0,0,0,0,0,-0.0148,-0.0141,-0.0137,-0.0132,-0.0105,-0.0088,-0.0084,-0.0071,-0.0069,-0.0065,-0.0046,-0.0044,-0.0004,-0.0005,-0.0,-0.0013,0.0029,0.0029,0.0029,0.0001,-0.0002,-0.0004,0,0,0,0,0,0,-0.0165,-0.0138,-0.0133,-0.012,-0.0107,-0.0085,-0.0079,-0.0071,-0.0053,-0.0052,-0.0035,-0.0029,-0.0021,-0.0005,-0.0007,-0.0001,0.0009,0.001,-0.0015,-0.0016,-0.0018,-0.002,-0.0006,0,0,0,0,0,-0.0166,-0.0153,-0.0132,-0.0123,-0.0116,-0.0098,-0.009,-0.0082,-0.0063,-0.0056,-0.0038,-0.0023,-0.0016,-0.0006,0.0005,0.0019,0.0017,0.0011,0.0009,0.0008,0.001,-0.001,-0.0014,0.0029,0.0029,0.0029,0,0,-0.0173,-0.0155,-0.015,-0.0126,-0.0114,-0.0108,-0.0094,-0.0082,-0.0078,-0.0054,-0.0039,-0.0028,-0.0014,-0.0006,-0.0001,0.0006,-0.0004,0.0008,0.0006,0.001,-0.0011,-0.0015,-0.0019,0.0029,0.0029,0.0029,0,0,-0.0178,-0.0162,-0.0154,-0.0144,-0.0124,-0.0113,-0.0111,-0.0088,-0.0079,-0.0059,-0.0052,-0.0046,-0.0017,-0.0019,-0.0016,-0.0018,-0.0017,-0.0014,-0.002,-0.004,-0.0044,-0.0048,-0.0053,-0.0057,-0.001,-0.0011,-0.0011,0,-0.019,-0.0173,-0.0151,-0.0143,-0.0137,-0.0118,-0.0115,-0.0104,-0.0077,-0.0068,-0.0058,-0.0032,-0.003,-0.0029,-0.0034,-0.0026,-0.0025,-0.0016,-0.0044,-0.0048,-0.0051,-0.0056,-0.006,-0.0012,-0.0012,-0.0012,-0.0012,0,-0.0189,-0.018,-0.0175,-0.016,-0.015,-0.0143,-0.0127,-0.0118,-0.0103,-0.0089,-0.0074,-0.0059,-0.004,-0.005,-0.0042,-0.0061,-0.0049,-0.005,-0.0043,-0.0057,-0.0061,-0.0065,-0.0014,-0.0014,-0.0013,-0.0013,0,0,-0.0205,-0.0181,-0.018,-0.0165,-0.0157,-0.0139,-0.0147,-0.0133,-0.0125,-0.0103,-0.0088,-0.0089,-0.0068,-0.0063,-0.0054,-0.0074,-0.0107,-0.0068,-0.0069,-0.0081,-0.0137,-0.0119,-0.0121,-0.0111,-0.0112,-0.0113,-0.013,0,-0.0212,-0.019,-0.0189,-0.0174,-0.0154,-0.0155,-0.0155,-0.0143,-0.013,-0.011,-0.0099,-0.008,-0.0075,-0.0062,-0.0081,-0.0079,-0.0117,-0.0101,-0.0114,-0.0115,-0.0104,-0.0126,-0.0115,-0.0133,-0.0134,-0.0134,-0.0135,0,-0.0205,-0.0187,-0.0173,-0.015,-0.0146,-0.0146,-0.0132,-0.0129,-0.0119,-0.0113,-0.0096,-0.0073,-0.0064,-0.0078,-0.0089,-0.0071,-0.0117,-0.0136,-0.0137,-0.0112,-0.0104,-0.0114,-0.0141,-0.0141,-0.014,-0.014,-0.0139,0,-0.0164,-0.017,-0.0151,-0.0146,-0.0131,-0.0132,-0.0127,-0.0124,-0.0095,-0.0107,-0.0089,-0.0073,-0.0044,-0.0081,-0.0085,-0.0092,-0.0112,-0.0129,-0.0169,-0.0167,-0.0165,-0.016,-0.0202,-0.0202,-0.0202,-0.0202,-0.0202,0,-0.0131,-0.0106,-0.0133,-0.01,-0.0073,-0.0098,-0.0058,-0.007,-0.0068,-0.003,-0.0069,-0.0046,-0.0048,-0.0039,-0.008,-0.0099,-0.0104,-0.0173,-0.0175,-0.0175,-0.0172,-0.0167,-0.0163,-0.0203,-0.0203,-0.0203,-0.0202,0,-0.0033,-0.0062,-0.0016,-0.0027,-0.0029,0.0005,0.0031,0.0055,0.0009,0.0051,0.0053,0.0015,0.0007,0.0002,-0.0047,-0.0078,-0.012,-0.0156,-0.0132,-0.0131,-0.017,-0.0167,-0.0195,-0.0195,-0.0194,-0.0194,-0.0194,0,0.0037,0.0053,0.007,0.0099,0.0108,0.0137,0.0162,0.0126,0.0131,0.009,0.0102,0.0087,0.0067,0.004,-0.0017,-0.0077,-0.0118,-0.0145,-0.0191,-0.0172,-0.0171,-0.0169,-0.0166,-0.0193,-0.0193,-0.0193,-0.0193,0,0.0151,0.0142,0.0167,0.0221,0.0251,0.0297,0.0299,0.0305,0.0242,0.0235,0.0178,0.013,0.0105,0.0056,0.0016,-0.0049,-0.0111,-0.0143,-0.0145,-0.0189,-0.017,-0.0169,-0.0167,-0.0192,-0.0192,-0.0192,-0.0192,0,0.0217,0.0252,0.0245,0.0301,0.0376,0.0394,0.0394,0.0356,0.0346,0.0263,0.0259,0.018,0.0158,0.0065,0.0023,-0.0011,-0.0055,-0.0096,-0.0102,-0.0105,-0.0078,-0.0042,-0.0029,0,0,0,0,0,0.0251,0.0256,0.0316,0.0338,0.0435,0.0454,0.045,0.0411,0.0354,0.0345,0.0293,0.026,0.0164,0.0093,0.0064,-0.0003,-0.0075,-0.0046,-0.0127,-0.0186,-0.0187,-0.0171,0,0,0,0,0,0,0.0251,0.0283,0.0297,0.0363,0.0412,0.0457,0.0467,0.0409,0.0369,0.033,0.0289,0.0258,0.0174,0.0224,0.0078,0.0056,-0.0007,-0.0087,-0.0089,-0.0185,-0.0186,-0.0187,-0.0171,0,0,0,0,0]}]]